Portada
METAR-TAF:

METAR-TAF

Aeropuertos :

Arauca, Colombia

Aeropuerto Santiago Pérez Quiroz

latitud: 07-04N, longitud: 070-44W, altitud: 128 m

Observación

El informe se hizo hace 5 horas y 53 minutos, a las 04:00 UTC
Viento calma
Temperatura 25°C
Humedad 94%
Presión 1013 hPa
Visibilidad 10 km o más
Cielo nuboso a una altura de 1700 ft

METAR: SKUC 230400Z 00000KT 9999 BKN017 25/24 A2992

Hora: 04:53 (09:53 UTC)


TAF: falta

Observaciones y pronósticos meteorológicos de más de 4000 aeropuertos (mensajes METAR y TAF).

Los puntos amarillos y rojos representan las estaciones disponibles.

Ponga el ratón en el punto deseado para ver el nombre de la estación.

Haga clic para ver las observaciones y los pronósticos meteorológicos.

Para cambiar el mapa : haga clic en los botones verdes con una cruz de color negro para hacer un zoom, en el botón verde con un guión para alejar o en las flechas verdes para mapas adyacentes.


METAR-TAF: